Dades meteomassalio
Diari Summary for Abril 22, 2017 Units:  English    Metric   Both
« Previous Day
Next Day »
Diari Semanal Mensual Anual Personalitzat
  Maxima: Minima: Mijana:
Temperatura: TemperatureF °F 31.8 °F 52.8 °F
Rosada: DewpointF °F 23.5 °F 33.4 °F
Humitat: Humidity % 21 % 52 %
Velocitat del vent: WindSpeedMPH mph 0.0 mph 1.9 mph
Racha vent: WindSpeedGustMPH mph - -
Vent:- - East
Pressio: PressureIn in 30.11 in -
Pluja: 0.00 in    
Historical Graphs
 
 
Tabular Data for Abril 22, 2017
Time Temperature Dew Point Pressure Wind Wind Speed Wind Gust Humidity Rainfall Rate (Hourly) solar Conditions
TemperatureF °F DewpointF °F PressureIn in Calm     Humidity % HourlyPrecipIn in SolarRadiationWatts/m^2 W/m2 Conditions
00:00 46.2 °F 31.4 °F 30.37 in Calm     56 % 0.00 in 0.0 W/m2 CLR
00:05 45.9 °F 31.5 °F 30.37 in Calm     57 % 0.00 in 0.0 W/m2 CLR
00:10 45.9 °F 31.9 °F 30.37 in Calm     58 % 0.00 in 0.0 W/m2 CLR
00:15 45.9 °F 31.5 °F 30.37 in Calm     57 % 0.00 in 0.0 W/m2 CLR
00:20 45.6 °F 31.2 °F 30.37 in Calm     57 % 0.00 in 0.0 W/m2 CLR
00:25 45.1 °F 31.2 °F 30.37 in Calm     58 % 0.00 in 0.0 W/m2 CLR
00:30 44.5 °F 30.6 °F 30.37 in Calm     58 % 0.00 in 0.0 W/m2 CLR
00:35 43.8 °F 30.8 °F 30.37 in Calm     60 % 0.00 in 0.0 W/m2 CLR
00:40 43.3 °F 30.7 °F 30.37 in Calm     61 % 0.00 in 0.0 W/m2 CLR
00:45 42.9 °F 30.4 °F 30.37 in Calm     61 % 0.00 in 0.0 W/m2 CLR
00:50 42.4 °F 30.3 °F 30.37 in Calm     62 % 0.00 in 0.0 W/m2 CLR
00:55 41.9 °F 30.2 °F 30.37 in Calm     63 % 0.00 in 0.0 W/m2 CLR
01:00 41.6 °F 30.3 °F 30.37 in Calm     64 % 0.00 in 0.0 W/m2 CLR
01:05 41.5 °F 30.6 °F 30.37 in Calm     65 % 0.00 in 0.0 W/m2 CLR
01:10 41.3 °F 30.4 °F 30.37 in Calm     65 % 0.00 in 0.0 W/m2 CLR
01:15 41.1 °F 30.2 °F 30.37 in Calm     65 % 0.00 in 0.0 W/m2 CLR
01:20 40.9 °F 30.4 °F 30.37 in Calm     66 % 0.00 in 0.0 W/m2 CLR
01:21 40.9 °F 30.4 °F 30.37 in Calm     66 % 0.00 in 0.0 W/m2 CLR
01:26 40.6 °F 30.1 °F 30.37 in Calm     66 % 0.00 in 0.0 W/m2 CLR
01:27 40.5 °F 30.0 °F 30.37 in Calm     66 % 0.00 in 0.0 W/m2 CLR
01:32 40.2 °F 30.1 °F 30.37 in Calm     67 % 0.00 in 0.0 W/m2 CLR
01:37 40.0 °F 29.9 °F 30.37 in Calm     67 % 0.00 in 0.0 W/m2 CLR
01:42 39.8 °F 30.1 °F 30.37 in Calm     68 % 0.00 in 0.0 W/m2 CLR
01:47 39.5 °F 29.8 °F 30.37 in Calm     68 % 0.00 in 0.0 W/m2 CLR
01:52 39.2 °F 29.9 °F 30.37 in Calm     69 % 0.00 in 0.0 W/m2 CLR
01:57 39.0 °F 29.7 °F 30.37 in Calm     69 % 0.00 in 0.0 W/m2 CLR
02:02 38.8 °F 29.8 °F 30.37 in Calm     70 % 0.00 in 0.0 W/m2 CLR
02:07 38.4 °F 29.5 °F 30.37 in Calm     70 % 0.00 in 0.0 W/m2 CLR
02:12 38.2 °F 29.3 °F 30.37 in Calm     70 % 0.00 in 0.0 W/m2 CLR
02:17 37.9 °F 29.3 °F 30.37 in Calm     71 % 0.00 in 0.0 W/m2 CLR
02:22 37.8 °F 29.2 °F 30.37 in Calm     71 % 0.00 in 0.0 W/m2 CLR
02:27 37.6 °F 29.4 °F 30.36 in Calm     72 % 0.00 in 0.0 W/m2 CLR
02:32 37.5 °F 29.3 °F 30.36 in Calm     72 % 0.00 in 0.0 W/m2 CLR
02:37 37.3 °F 29.1 °F 30.36 in Calm     72 % 0.00 in 0.0 W/m2 CLR
02:42 37.1 °F 28.9 °F 30.36 in Calm     72 % 0.00 in 0.0 W/m2 CLR
02:47 36.9 °F 28.7 °F 30.36 in Calm     72 % 0.00 in 0.0 W/m2 CLR
02:52 36.8 °F 29.3 °F 30.36 in Calm     74 % 0.00 in 0.0 W/m2 CLR
02:57 36.9 °F 29.7 °F 30.35 in Calm     75 % 0.00 in 0.0 W/m2 CLR
03:02 36.9 °F 29.7 °F 30.35 in Calm     75 % 0.00 in 0.0 W/m2 CLR
03:07 36.9 °F 29.4 °F 30.35 in Calm     74 % 0.00 in 0.0 W/m2 CLR
03:12 36.5 °F 28.7 °F 30.35 in Calm     73 % 0.00 in 0.0 W/m2 CLR
03:17 36.2 °F 28.4 °F 30.35 in Calm     73 % 0.00 in 0.0 W/m2 CLR
03:22 36.1 °F 28.6 °F 30.35 in Calm     74 % 0.00 in 0.0 W/m2 CLR
03:27 36.0 °F 28.5 °F 30.35 in Calm     74 % 0.00 in 0.0 W/m2 CLR
03:32 35.8 °F 28.3 °F 30.34 in Calm     74 % 0.00 in 0.0 W/m2 CLR
03:37 35.7 °F 28.2 °F 30.34 in Calm     74 % 0.00 in 0.0 W/m2 CLR
03:42 35.5 °F 28.0 °F 30.34 in Calm     74 % 0.00 in 0.0 W/m2 CLR
03:47 35.3 °F 27.8 °F 30.34 in Calm     74 % 0.00 in 0.0 W/m2 CLR
03:52 35.1 °F 27.6 °F 30.34 in Calm     74 % 0.00 in 0.0 W/m2 CLR
03:57 35.0 °F 27.9 °F 30.33 in Calm     75 % 0.00 in 0.0 W/m2 CLR
04:02 34.8 °F 27.7 °F 30.33 in Calm     75 % 0.00 in 0.0 W/m2 CLR
04:07 34.5 °F 27.7 °F 30.34 in Calm     76 % 0.00 in 0.0 W/m2 CLR
04:12 34.4 °F 27.3 °F 30.34 in Calm     75 % 0.00 in 0.0 W/m2 CLR
04:17 34.2 °F 27.1 °F 30.34 in Calm     75 % 0.00 in 0.0 W/m2 CLR
04:22 34.2 °F 27.1 °F 30.34 in Calm     75 % 0.00 in 0.0 W/m2 CLR
04:27 34.1 °F 27.0 °F 30.34 in Calm     75 % 0.00 in 0.0 W/m2 CLR
04:32 33.9 °F 27.1 °F 30.34 in Calm     76 % 0.00 in 0.0 W/m2 CLR
04:37 33.7 °F 26.9 °F 30.34 in Calm     76 % 0.00 in 0.0 W/m2 CLR
04:42 33.5 °F 26.4 °F 30.34 in Calm     75 % 0.00 in 0.0 W/m2 CLR
04:47 33.4 °F 26.3 °F 30.34 in Calm     75 % 0.00 in 0.0 W/m2 CLR
04:52 33.3 °F 25.9 °F 30.34 in Calm     74 % 0.00 in 0.0 W/m2 CLR
04:57 33.3 °F 25.9 °F 30.34 in Calm     74 % 0.00 in 0.0 W/m2 CLR
05:02 33.3 °F 25.9 °F 30.34 in Calm     74 % 0.00 in 0.0 W/m2 CLR
05:07 33.3 °F 25.9 °F 30.34 in Calm     74 % 0.00 in 0.0 W/m2 CLR
05:12 33.1 °F 25.7 °F 30.34 in Calm     74 % 0.00 in 0.0 W/m2 CLR
05:17 33.1 °F 25.7 °F 30.34 in Calm     74 % 0.00 in 0.0 W/m2 CLR
05:22 33.0 °F 25.6 °F 30.33 in Calm     74 % 0.00 in 0.0 W/m2 CLR
05:27 32.9 °F 25.8 °F 30.34 in Calm     75 % 0.00 in 0.0 W/m2 CLR
05:32 32.7 °F 25.6 °F 30.33 in Calm     75 % 0.00 in 0.0 W/m2 CLR
05:37 32.6 °F 25.9 °F 30.33 in Calm     76 % 0.00 in 0.0 W/m2 CLR
05:42 32.4 °F 25.7 °F 30.33 in Calm     76 % 0.00 in 0.0 W/m2 CLR
05:47 32.1 °F 25.4 °F 30.33 in Calm     76 % 0.00 in 0.0 W/m2 CLR
05:52 31.9 °F 25.2 °F 30.33 in Calm     76 % 0.00 in 0.0 W/m2 CLR
05:57 31.8 °F 25.1 °F 30.33 in Calm     76 % 0.00 in 0.0 W/m2 CLR
06:03 31.8 °F 25.4 °F 30.33 in Calm     77 % 0.00 in 0.0 W/m2 CLR
06:08 31.8 °F 25.1 °F 30.33 in Calm     76 % 0.00 in 0.0 W/m2 CLR
06:13 32.1 °F 25.1 °F 30.33 in Calm     75 % 0.00 in 0.0 W/m2 CLR
06:18 32.2 °F 25.2 °F 30.34 in Calm     75 % 0.00 in 0.0 W/m2 CLR
06:23 32.2 °F 25.2 °F 30.34 in Calm     75 % 0.00 in 0.0 W/m2 CLR
06:28 32.1 °F 25.1 °F 30.34 in Calm     75 % 0.00 in 0.0 W/m2 CLR
06:33 32.1 °F 24.7 °F 30.34 in Calm     74 % 0.00 in 0.0 W/m2 CLR
06:38 32.1 °F 24.7 °F 30.34 in Calm     74 % 0.00 in 0.0 W/m2 CLR
06:43 32.0 °F 24.3 °F 30.34 in Calm     73 % 0.00 in 0.0 W/m2 CLR
06:48 32.0 °F 24.6 °F 30.34 in Calm     74 % 0.00 in 0.0 W/m2 CLR
06:53 32.0 °F 24.6 °F 30.34 in Calm     74 % 0.00 in 0.0 W/m2 CLR
06:58 32.0 °F 24.3 °F 30.34 in Calm     73 % 0.00 in 0.0 W/m2 CLR
07:03 32.0 °F 24.6 °F 30.34 in Calm     74 % 0.00 in 0.0 W/m2 OVC
07:08 31.9 °F 24.2 °F 30.35 in Calm     73 % 0.00 in 0.0 W/m2 OVC
07:13 32.0 °F 24.3 °F 30.35 in Calm     73 % 0.00 in 5.0 W/m2 OVC
07:18 32.1 °F 24.4 °F 30.35 in Calm     73 % 0.00 in 9.0 W/m2 BKN
07:23 32.0 °F 24.3 °F 30.35 in Calm     73 % 0.00 in 11.0 W/m2 BKN
07:28 31.9 °F 24.2 °F 30.35 in Calm     73 % 0.00 in 12.0 W/m2 BKN
07:33 31.8 °F 24.1 °F 30.35 in Calm     73 % 0.00 in 16.0 W/m2 BKN
07:38 32.0 °F 24.6 °F 30.35 in Calm     74 % 0.00 in 19.0 W/m2 BKN
07:43 32.4 °F 25.0 °F 30.35 in Calm     74 % 0.00 in 26.0 W/m2 BKN
07:48 32.8 °F 25.4 °F 30.35 in Calm     74 % 0.00 in 37.0 W/m2 BKN
07:53 33.2 °F 25.8 °F 30.35 in Calm     74 % 0.00 in 47.0 W/m2 SCT
07:58 33.8 °F 26.1 °F 30.35 in Calm     73 % 0.00 in 63.0 W/m2 SCT
08:03 34.1 °F 25.7 °F 30.35 in Calm     71 % 0.00 in 77.0 W/m2 FEW
08:08 34.5 °F 26.1 °F 30.35 in Calm     71 % 0.00 in 93.0 W/m2 CLR
08:13 35.6 °F 26.8 °F 30.35 in Calm     70 % 0.00 in 113.0 W/m2 CLR
08:18 36.4 °F 26.8 °F 30.35 in Calm     68 % 0.00 in 130.0 W/m2 CLR
08:23 37.0 °F 27.1 °F 30.35 in Calm     67 % 0.00 in 149.0 W/m2 CLR
08:28 37.5 °F 27.2 °F 30.35 in Calm     66 % 0.00 in 167.0 W/m2 CLR
08:33 38.3 °F 27.9 °F 30.35 in Calm     66 % 0.00 in 190.0 W/m2 CLR
08:38 39.3 °F 27.7 °F 30.35 in Calm     63 % 0.00 in 209.0 W/m2 CLR
08:43 39.8 °F 28.2 °F 30.35 in Calm     63 % 0.00 in 229.0 W/m2 CLR
08:48 40.5 °F 28.5 °F 30.35 in Calm     62 % 0.00 in 244.0 W/m2 CLR
08:53 41.1 °F 28.3 °F 30.34 in Calm     60 % 0.00 in 262.0 W/m2 CLR
08:58 41.6 °F 28.3 °F 30.34 in Calm     59 % 0.00 in 281.0 W/m2 CLR
09:03 42.3 °F 28.1 °F 30.34 in Calm     57 % 0.00 in 297.0 W/m2 CLR
09:08 42.9 °F 27.8 °F 30.34 in Calm     55 % 0.00 in 253.0 W/m2 CLR
09:13 43.7 °F 28.1 °F 30.34 in Calm     54 % 0.00 in 102.0 W/m2 FEW
09:18 44.4 °F 27.9 °F 30.34 in Calm     52 % 0.00 in 350.0 W/m2 FEW
09:23 45.3 °F 27.7 °F 30.33 in Calm     50 % 0.00 in 366.0 W/m2 CLR
09:28 46.1 °F 27.5 °F 30.33 in Calm     48 % 0.00 in 381.0 W/m2 CLR
09:33 46.9 °F 28.2 °F 30.33 in Calm     48 % 0.00 in 397.0 W/m2 CLR
09:38 47.7 °F 27.9 °F 30.33 in Calm     46 % 0.00 in 417.0 W/m2 CLR
09:43 48.5 °F 28.1 °F 30.33 in Calm     45 % 0.00 in 432.0 W/m2 CLR
09:48 49.3 °F 28.8 °F 30.33 in Calm     45 % 0.00 in 446.0 W/m2 CLR
09:53 50.0 °F 28.9 °F 30.32 in Calm     44 % 0.00 in 462.0 W/m2 CLR
09:58 50.6 °F 29.5 °F 30.32 in Calm     44 % 0.00 in 480.0 W/m2 CLR
10:03 51.5 °F 30.3 °F 30.32 in Calm     44 % 0.00 in 496.0 W/m2 CLR
10:08 52.4 °F 31.1 °F 30.32 in Calm     44 % 0.00 in 513.0 W/m2 CLR
10:13 53.4 °F 31.4 °F 30.32 in Calm     43 % 0.00 in 527.0 W/m2 CLR
10:18 54.0 °F 30.8 °F 30.32 in Calm     41 % 0.00 in 543.0 W/m2 CLR
10:23 54.5 °F 31.3 °F 30.32 in Calm     41 % 0.00 in 561.0 W/m2 CLR
10:28 55.5 °F 32.2 °F 30.31 in Calm     41 % 0.00 in 573.0 W/m2 CLR
10:33 56.3 °F 32.3 °F 30.31 in Calm     40 % 0.00 in 589.0 W/m2 CLR
10:38 56.7 °F 32.6 °F 30.31 in Calm     40 % 0.00 in 603.0 W/m2 CLR
10:43 57.2 °F 32.4 °F 30.31 in Calm     39 % 0.00 in 615.0 W/m2 CLR
10:48 57.4 °F 33.3 °F 30.31 in Calm     40 % 0.00 in 631.0 W/m2 CLR
10:53 57.8 °F 33.0 °F 30.30 in Calm     39 % 0.00 in 643.0 W/m2 CLR
10:58 58.0 °F 32.5 °F 30.31 in Calm     38 % 0.00 in 656.0 W/m2 CLR
11:03 58.4 °F 32.9 °F 30.30 in East 2.3 mph 2.3 mph 38 % 0.00 in 668.0 W/m2 CLR
11:08 58.5 °F 32.3 °F 30.30 in Calm     37 % 0.00 in 684.0 W/m2 CLR
11:13 58.8 °F 32.6 °F 30.30 in ENE 1.2 mph   37 % 0.00 in 694.0 W/m2 CLR
11:18 59.5 °F 32.5 °F 30.30 in ESE 3.5 mph 3.5 mph 36 % 0.00 in 708.0 W/m2 CLR
11:23 60.2 °F 31.7 °F 30.29 in Calm     34 % 0.00 in 721.0 W/m2 CLR
11:28 60.8 °F 32.2 °F 30.30 in Calm     34 % 0.00 in 733.0 W/m2 CLR
11:33 61.5 °F 31.3 °F 30.29 in ESE 3.5 mph 3.5 mph 32 % 0.00 in 745.0 W/m2 CLR
11:38 61.4 °F 30.5 °F 30.29 in NE 3.5 mph 3.5 mph 31 % 0.00 in 752.0 W/m2 CLR
11:43 61.6 °F 27.3 °F 30.29 in East 3.5 mph 3.5 mph 27 % 0.00 in 766.0 W/m2 CLR
11:48 61.4 °F 25.2 °F 30.29 in Calm     25 % 0.00 in 775.0 W/m2 CLR
11:53 61.7 °F 23.5 °F 30.28 in ESE 3.5 mph 3.5 mph 23 % 0.00 in 786.0 W/m2 CLR
11:58 62.1 °F 26.8 °F 30.28 in ESE 3.5 mph 3.5 mph 26 % 0.00 in 796.0 W/m2 CLR
12:03 62.3 °F 26.9 °F 30.28 in ENE 2.3 mph 2.3 mph 26 % 0.00 in 807.0 W/m2 CLR
12:08 62.4 °F 26.1 °F 30.28 in East 2.3 mph 2.3 mph 25 % 0.00 in 814.0 W/m2 CLR
12:13 62.4 °F 26.1 °F 30.28 in Calm     25 % 0.00 in 824.0 W/m2 CLR
12:18 63.4 °F 25.9 °F 30.27 in Calm     24 % 0.00 in 833.0 W/m2 CLR
12:23 64.0 °F 24.4 °F 30.27 in ENE 1.2 mph   22 % 0.00 in 840.0 W/m2 CLR
12:28 64.4 °F 24.7 °F 30.27 in Calm     22 % 0.00 in 847.0 W/m2 CLR
12:33 64.7 °F 26.0 °F 30.26 in ENE 2.0 mph   23 % 0.00 in 856.0 W/m2 CLR
12:38 65.3 °F 26.5 °F 30.26 in ENE 5.8 mph 5.8 mph 23 % 0.00 in 863.0 W/m2 CLR
12:43 65.0 °F 29.2 °F 30.26 in North 4.0 mph 4.0 mph 26 % 0.00 in 867.0 W/m2 CLR
12:48 65.2 °F 29.4 °F 30.26 in North 4.0 mph 4.0 mph 26 % 0.00 in 870.0 W/m2 CLR
12:53 65.3 °F 29.5 °F 30.25 in Calm   0.5 mph 26 % 0.00 in 875.0 W/m2 CLR
12:59 65.6 °F 30.7 °F 30.25 in ENE 5.8 mph 5.8 mph 27 % 0.00 in 882.0 W/m2 CLR
13:04 65.9 °F 30.9 °F 30.25 in ENE 3.5 mph 3.5 mph 27 % 0.00 in 886.0 W/m2 CLR
13:09 66.3 °F 31.3 °F 30.25 in NE 3.5 mph 3.5 mph 27 % 0.00 in 891.0 W/m2 CLR
13:14 66.5 °F 30.5 °F 30.24 in NNW 2.3 mph   26 % 0.00 in 893.0 W/m2 CLR
13:19 67.1 °F 31.0 °F 30.24 in ENE 5.8 mph 5.8 mph 26 % 0.00 in 900.0 W/m2 CLR
13:24 67.1 °F 30.1 °F 30.24 in North 4.6 mph 4.6 mph 25 % 0.00 in 905.0 W/m2 CLR
13:29 66.8 °F 29.8 °F 30.24 in North 3.5 mph 3.5 mph 25 % 0.00 in 905.0 W/m2 CLR
13:34 67.1 °F 30.1 °F 30.23 in Calm     25 % 0.00 in 909.0 W/m2 CLR
13:39 67.7 °F 27.5 °F 30.23 in NE 5.8 mph   22 % 0.00 in 912.0 W/m2 CLR
13:44 68.4 °F 28.0 °F 30.23 in NE 5.0 mph 5.0 mph 22 % 0.00 in 912.0 W/m2 CLR
13:49 68.5 °F 29.2 °F 30.23 in NE 5.8 mph 5.8 mph 23 % 0.00 in 914.0 W/m2 CLR
13:54 68.7 °F 28.3 °F 30.22 in North 3.5 mph 3.5 mph 22 % 0.00 in 916.0 W/m2 CLR
13:59 68.8 °F 28.4 °F 30.22 in North 3.5 mph 3.5 mph 22 % 0.00 in 916.0 W/m2 CLR
14:04 68.7 °F 28.3 °F 30.22 in NE 6.0 mph 6.0 mph 22 % 0.00 in 916.0 W/m2 CLR
14:09 69.2 °F 28.7 °F 30.22 in ENE 4.0 mph 4.0 mph 22 % 0.00 in 912.0 W/m2 CLR
14:14 69.4 °F 27.7 °F 30.22 in East 7.0 mph 7.0 mph 21 % 0.00 in 909.0 W/m2 CLR
14:19 69.5 °F 27.8 °F 30.21 in Calm     21 % 0.00 in 909.0 W/m2 CLR
14:24 69.8 °F 29.2 °F 30.21 in NE 2.3 mph 2.3 mph 22 % 0.00 in 907.0 W/m2 CLR
14:29 70.2 °F 29.5 °F 30.21 in East 5.8 mph 5.8 mph 22 % 0.00 in 907.0 W/m2 CLR
14:34 69.8 °F 29.2 °F 30.21 in ENE 8.1 mph 8.1 mph 22 % 0.00 in 900.0 W/m2 CLR
14:39 69.8 °F 29.2 °F 30.20 in Calm     22 % 0.00 in 891.0 W/m2 CLR
14:44 70.4 °F 31.9 °F 30.20 in Calm     24 % 0.00 in 888.0 W/m2 CLR
14:49 70.5 °F 29.8 °F 30.20 in ENE 2.3 mph   22 % 0.00 in 889.0 W/m2 CLR
14:54 69.9 °F 30.4 °F 30.20 in East 5.0 mph 5.0 mph 23 % 0.00 in 882.0 W/m2 CLR
14:59 69.9 °F 32.5 °F 30.20 in ESE 7.0 mph 7.0 mph 25 % 0.00 in 879.0 W/m2 CLR
15:04 70.7 °F 32.1 °F 30.19 in SE 6.9 mph 6.9 mph 24 % 0.00 in 874.0 W/m2 CLR
15:09 70.5 °F 31.9 °F 30.19 in East 5.8 mph 5.8 mph 24 % 0.00 in 867.0 W/m2 CLR
15:14 70.5 °F 31.9 °F 30.19 in NNE 3.5 mph 3.5 mph 24 % 0.00 in 861.0 W/m2 CLR
15:19 71.0 °F 33.4 °F 30.18 in ENE 3.5 mph 3.5 mph 25 % 0.00 in 861.0 W/m2 CLR
15:24 71.4 °F 34.7 °F 30.18 in East 8.0 mph 8.0 mph 26 % 0.00 in 851.0 W/m2 CLR
15:29 71.1 °F 33.5 °F 30.18 in SE 8.1 mph 8.1 mph 25 % 0.00 in 842.0 W/m2 CLR
15:34 71.2 °F 33.6 °F 30.18 in NE 3.5 mph   25 % 0.00 in 835.0 W/m2 CLR
15:39 71.3 °F 33.6 °F 30.17 in East 4.6 mph 4.6 mph 25 % 0.00 in 828.0 W/m2 CLR
15:44 71.6 °F 35.8 °F 30.17 in ENE 9.2 mph 9.2 mph 27 % 0.00 in 814.0 W/m2 CLR
15:49 72.2 °F 36.3 °F 30.17 in NNE 4.6 mph 4.6 mph 27 % 0.00 in 809.0 W/m2 CLR
15:54 72.5 °F 36.6 °F 30.17 in East 6.9 mph 6.9 mph 27 % 0.00 in 800.0 W/m2 CLR
15:59 71.7 °F 35.9 °F 30.16 in NNW 6.9 mph 6.9 mph 27 % 0.00 in 793.0 W/m2 CLR
16:04 71.8 °F 37.8 °F 30.16 in NNE 5.8 mph 5.8 mph 29 % 0.00 in 784.0 W/m2 CLR
16:09 72.1 °F 37.2 °F 30.16 in NE 8.1 mph 8.1 mph 28 % 0.00 in 770.0 W/m2 CLR
16:14 72.2 °F 39.9 °F 30.15 in ESE 3.0 mph 3.0 mph 31 % 0.00 in 735.0 W/m2 CLR
16:19 71.8 °F 41.1 °F 30.15 in NE 12.0 mph 12.0 mph 33 % 0.00 in 717.0 W/m2 CLR
16:24 71.8 °F 41.1 °F 30.15 in ENE 4.0 mph 4.0 mph 33 % 0.00 in 703.0 W/m2 CLR
16:29 71.8 °F 41.1 °F 30.15 in ENE 11.5 mph 11.5 mph 33 % 0.00 in 731.0 W/m2 CLR
16:34 71.9 °F 41.2 °F 30.15 in NNE 11.0 mph 11.0 mph 33 % 0.00 in 708.0 W/m2 CLR
16:39 71.8 °F 41.9 °F 30.15 in NNE 12.7 mph 12.7 mph 34 % 0.00 in 693.0 W/m2 CLR
16:43 71.9 °F 42.0 °F 30.14 in ENE 3.5 mph 4.5 mph 34 % 0.00 in 696.0 W/m2 CLR
16:48 71.9 °F 42.0 °F 30.14 in NE 6.0 mph 6.0 mph 34 % 0.00 in 687.0 W/m2 CLR
16:53 71.9 °F 42.8 °F 30.14 in NE 12.7 mph 12.7 mph 35 % 0.00 in 663.0 W/m2 CLR
16:58 72.0 °F 42.8 °F 30.14 in NE 11.5 mph 11.5 mph 35 % 0.00 in 650.0 W/m2 CLR
17:03 72.2 °F 43.0 °F 30.14 in Calm     35 % 0.00 in 629.0 W/m2 CLR
17:08 72.3 °F 43.1 °F 30.13 in East 9.2 mph 9.2 mph 35 % 0.00 in 629.0 W/m2 CLR
17:13 72.1 °F 43.7 °F 30.13 in ENE 5.0 mph 5.0 mph 36 % 0.00 in 612.0 W/m2 CLR
17:18 72.2 °F 42.3 °F 30.13 in NE 4.6 mph 4.6 mph 34 % 0.00 in 598.0 W/m2 CLR
17:23 72.2 °F 43.0 °F 30.13 in NE 10.4 mph 10.4 mph 35 % 0.00 in 580.0 W/m2 CLR
17:28 72.2 °F 43.0 °F 30.13 in East 5.8 mph 5.8 mph 35 % 0.00 in 571.0 W/m2 CLR
17:33 71.9 °F 42.8 °F 30.13 in ENE 9.2 mph 9.2 mph 35 % 0.00 in 554.0 W/m2 CLR
17:38 71.7 °F 43.3 °F 30.13 in NE 12.7 mph 12.7 mph 36 % 0.00 in 543.0 W/m2 CLR
17:43 71.6 °F 43.2 °F 30.13 in ENE 5.8 mph 5.8 mph 36 % 0.00 in 527.0 W/m2 CLR
17:48 71.6 °F 43.9 °F 30.12 in East 3.5 mph 3.5 mph 37 % 0.00 in 506.0 W/m2 CLR
17:53 71.4 °F 43.0 °F 30.12 in East 2.3 mph 2.3 mph 36 % 0.00 in 489.0 W/m2 CLR
17:58 71.2 °F 42.9 °F 30.12 in East 6.0 mph 6.0 mph 36 % 0.00 in 448.0 W/m2 CLR
18:03 70.5 °F 43.0 °F 30.12 in ESE 4.6 mph 4.6 mph 37 % 0.00 in 396.0 W/m2 CLR
18:08 70.4 °F 42.9 °F 30.12 in East 6.9 mph 6.9 mph 37 % 0.00 in 336.0 W/m2 CLR
18:13 70.2 °F 44.1 °F 30.12 in East 3.5 mph 3.5 mph 39 % 0.00 in 322.0 W/m2 CLR
18:18 69.8 °F 43.0 °F 30.12 in East 6.0 mph 6.0 mph 38 % 0.00 in 367.0 W/m2 CLR
18:23 69.6 °F 43.5 °F 30.12 in ESE 9.2 mph 9.2 mph 39 % 0.00 in 352.0 W/m2 CLR
18:28 69.3 °F 43.3 °F 30.12 in East 12.7 mph 12.7 mph 39 % 0.00 in 302.0 W/m2 CLR
18:33 69.1 °F 42.4 °F 30.12 in East 6.9 mph 6.9 mph 38 % 0.00 in 237.0 W/m2 CLR
18:38 68.8 °F 42.8 °F 30.12 in ESE 3.5 mph 3.5 mph 39 % 0.00 in 227.0 W/m2 CLR
18:44 68.8 °F 43.5 °F 30.12 in ESE 4.6 mph 4.6 mph 40 % 0.00 in 272.0 W/m2 CLR
18:49 68.9 °F 44.2 °F 30.12 in ESE 5.8 mph 5.8 mph 41 % 0.00 in 253.0 W/m2 CLR
18:54 68.7 °F 44.0 °F 30.12 in ESE 4.6 mph 4.6 mph 41 % 0.00 in 257.0 W/m2 CLR
18:59 68.3 °F 43.7 °F 30.12 in ESE 9.2 mph 9.2 mph 41 % 0.00 in 230.0 W/m2 CLR
19:04 67.9 °F 44.0 °F 30.12 in ESE 5.8 mph 5.8 mph 42 % 0.00 in 216.0 W/m2 CLR
19:09 67.7 °F 44.4 °F 30.12 in ESE 8.1 mph 8.1 mph 43 % 0.00 in 257.0 W/m2 CLR
19:14 67.1 °F 44.4 °F 30.12 in ESE 6.9 mph 6.9 mph 44 % 0.00 in 248.0 W/m2 CLR
19:19 67.0 °F 44.9 °F 30.12 in ESE 6.9 mph 6.9 mph 45 % 0.00 in 237.0 W/m2 CLR
19:24 66.8 °F 44.8 °F 30.12 in East 5.0 mph 5.0 mph 45 % 0.00 in 200.0 W/m2 CLR
19:29 66.4 °F 44.4 °F 30.12 in East 8.1 mph 8.1 mph 45 % 0.00 in 178.0 W/m2 CLR
19:34 65.9 °F 44.5 °F 30.12 in East 5.8 mph 5.8 mph 46 % 0.00 in 160.0 W/m2 CLR
19:39 65.9 °F 44.5 °F 30.11 in ESE 4.6 mph 4.6 mph 46 % 0.00 in 149.0 W/m2 CLR
19:44 65.7 °F 44.9 °F 30.11 in ESE 3.5 mph 3.5 mph 47 % 0.00 in 98.0 W/m2 CLR
19:49 65.5 °F 44.7 °F 30.11 in ESE 3.5 mph 3.5 mph 47 % 0.00 in 109.0 W/m2 CLR
19:54 65.4 °F 44.6 °F 30.11 in East 3.5 mph 3.5 mph 47 % 0.00 in 88.0 W/m2 CLR
19:59 65.3 °F 44.5 °F 30.11 in ESE 4.6 mph 4.6 mph 47 % 0.00 in 81.0 W/m2 FEW
20:04 64.8 °F 44.6 °F 30.11 in East 3.5 mph 3.5 mph 48 % 0.00 in 58.0 W/m2 SCT
20:09 64.4 °F 44.3 °F 30.11 in ESE 2.3 mph 2.3 mph 48 % 0.00 in 33.0 W/m2 BKN
20:14 64.2 °F 44.1 °F 30.12 in ESE 1.2 mph 1.2 mph 48 % 0.00 in 32.0 W/m2 BKN
20:19 63.9 °F 44.4 °F 30.11 in ESE 3.5 mph 3.5 mph 49 % 0.00 in 21.0 W/m2 BKN
20:24 63.6 °F 44.1 °F 30.11 in ESE 2.0 mph 2.0 mph 49 % 0.00 in 18.0 W/m2 BKN
20:29 63.3 °F 44.3 °F 30.12 in Calm     50 % 0.00 in 14.0 W/m2 BKN
20:34 63.0 °F 44.1 °F 30.11 in Calm     50 % 0.00 in 11.0 W/m2 BKN
20:39 62.7 °F 44.3 °F 30.11 in Calm     51 % 0.00 in 7.0 W/m2 BKN
20:40 62.7 °F 44.3 °F 30.12 in Calm     51 % 0.00 in 5.0 W/m2 OVC
20:45 62.4 °F 44.0 °F 30.12 in Calm     51 % 0.00 in 0.0 W/m2 OVC
20:50 62.0 °F 44.2 °F 30.11 in Calm     52 % 0.00 in 0.0 W/m2 OVC
20:55 61.6 °F 43.8 °F 30.11 in Calm     52 % 0.00 in 0.0 W/m2 OVC
21:00 61.2 °F 43.9 °F 30.12 in Calm     53 % 0.00 in 0.0 W/m2 CLR
21:05 60.8 °F 44.0 °F 30.12 in Calm     54 % 0.00 in 0.0 W/m2 CLR
21:10 60.6 °F 43.9 °F 30.12 in Calm     54 % 0.00 in 0.0 W/m2 CLR
21:15 60.3 °F 43.6 °F 30.12 in Calm     54 % 0.00 in 0.0 W/m2 CLR
21:20 59.9 °F 43.7 °F 30.12 in ENE 3.5 mph 3.5 mph 55 % 0.00 in 0.0 W/m2 CLR
21:25 59.6 °F 43.4 °F 30.12 in Calm     55 % 0.00 in 0.0 W/m2 CLR
21:30 59.2 °F 43.5 °F 30.13 in Calm     56 % 0.00 in 0.0 W/m2 CLR
21:31 59.2 °F 43.5 °F 30.13 in Calm     56 % 0.00 in 0.0 W/m2 CLR
21:36 58.9 °F 43.2 °F 30.13 in Calm     56 % 0.00 in 0.0 W/m2 CLR
21:41 58.6 °F 43.4 °F 30.13 in Calm     57 % 0.00 in 0.0 W/m2 CLR
21:46 58.3 °F 43.1 °F 30.13 in Calm     57 % 0.00 in 0.0 W/m2 CLR
21:51 58.1 °F 43.4 °F 30.13 in Calm     58 % 0.00 in 0.0 W/m2 CLR
21:56 57.8 °F 43.1 °F 30.14 in Calm     58 % 0.00 in 0.0 W/m2 CLR
22:01 57.6 °F 43.4 °F 30.14 in Calm     59 % 0.00 in 0.0 W/m2 CLR
22:06 57.3 °F 43.1 °F 30.14 in Calm     59 % 0.00 in 0.0 W/m2 CLR
22:11 57.1 °F 42.9 °F 30.14 in Calm     59 % 0.00 in 0.0 W/m2 CLR
22:16 56.9 °F 43.2 °F 30.14 in Calm     60 % 0.00 in 0.0 W/m2 CLR
22:21 56.7 °F 43.0 °F 30.14 in Calm     60 % 0.00 in 0.0 W/m2 CLR
22:26 56.4 °F 42.7 °F 30.15 in Calm     60 % 0.00 in 0.0 W/m2 CLR
22:31 56.1 °F 42.8 °F 30.15 in Calm     61 % 0.00 in 0.0 W/m2 CLR
22:36 56.0 °F 42.7 °F 30.15 in Calm     61 % 0.00 in 0.0 W/m2 CLR
22:41 55.8 °F 43.0 °F 30.15 in Calm     62 % 0.00 in 0.0 W/m2 CLR
22:46 55.6 °F 42.8 °F 30.15 in Calm     62 % 0.00 in 0.0 W/m2 CLR
22:51 55.4 °F 42.6 °F 30.15 in Calm     62 % 0.00 in 0.0 W/m2 CLR
22:56 55.2 °F 42.4 °F 30.15 in Calm     62 % 0.00 in 0.0 W/m2 CLR
23:01 55.0 °F 42.6 °F 30.15 in Calm     63 % 0.00 in 0.0 W/m2 CLR
23:06 54.9 °F 42.5 °F 30.15 in Calm     63 % 0.00 in 0.0 W/m2 CLR
23:11 54.7 °F 42.3 °F 30.15 in Calm     63 % 0.00 in 0.0 W/m2 CLR
23:16 54.2 °F 41.9 °F 30.15 in Calm     63 % 0.00 in 0.0 W/m2 CLR
23:21 53.9 °F 42.0 °F 30.15 in Calm     64 % 0.00 in 0.0 W/m2 CLR
23:26 53.7 °F 41.8 °F 30.15 in Calm     64 % 0.00 in 0.0 W/m2 CLR
23:31 53.4 °F 41.5 °F 30.15 in Calm     64 % 0.00 in 0.0 W/m2 CLR
23:36 53.1 °F 41.6 °F 30.15 in Calm     65 % 0.00 in 0.0 W/m2 CLR
23:41 52.7 °F 41.3 °F 30.15 in Calm     65 % 0.00 in 0.0 W/m2 CLR
23:46 52.0 °F 41.0 °F 30.15 in Calm     66 % 0.00 in 0.0 W/m2 CLR
23:51 51.6 °F 41.0 °F 30.15 in Calm     67 % 0.00 in 0.0 W/m2 CLR
23:56 51.4 °F 41.2 °F 30.15 in Calm     68 % 0.00 in 0.0 W/m2 CLR
Lo Temps de Massalio
Compliments of Weather Underground - 1.25 mb